Location: Buckenweiler
(49.0667°N, 10.2500°E)
Time: 18:38:22
(UTC+00:00)

MOS 1 Rocket - Pass Details

Date: 18 January 2026
Orbit: 608 x 815 km, 97.4° (Epoch: 18 February)

Event Time Altitude Azimuth Distance (km) Brightness Sun altitude
Rises 05:27:47 0° 17° (NNE) 3,025 6.6 -15.6°
Reaches altitude 10° 05:30:08 10° 22° (NNE) 2,076 5.9 -15.2°
Maximum altitude 05:34:31 50° 98° (E) 812 4.1 -14.5°
Drops below altitude 10° 05:38:41 10° 175° (S) 1,978 5.9 -13.9°
Sets 05:40:52 0° 180° (S) 2,866 6.7 -13.5°
